RH
102 101 101 98 99 102 101 100 101 103 104 104 101 102 102 90 90 104 107 101 100 100 100 101 100 101 101 100 98 88 71 61 60 69 88 102 99 86 68 60 67 68 57 47 43 44 51 58 55 44 48 53 49 63 87 95 97 100 102 104 101 85 59
102 102 101 97 100 102 101 101 100 102 104 104 101 100 104 100 97 106 110 106 101 99 101 99 100 102 98 94 86 72 67 64 61 74 95 102 100 91 75 65 67 67 59 53 49 44 45 54 56 47 48 51 47 54 73 80 75 73 79 81 71 53 40
104 103 100 97 100 101 101 101 99 100 102 102 100 100 102 103 104 106 104 103 103 102 102 100 102 102 91 83 74 68 74 67 61 79 92 96 106 96 71 61 64 61 58 58 57 50 44 48 53 48 46 50 49 47 55 61 56 50 47 44 41 39 40
105 98 93 94 98 100 100 100 99 100 103 102 100 101 102 102 106 105 97 99 105 105 102 101 102 95 83 79 77 78 80 69 67 80 86 96 106 86 60 59 63 57 55 60 61 56 48 46 52 50 45 48 52 48 51 58 56 48 39 35 38 41 42
103 92 92 97 99 100 100 100 100 101 103 103 99 100 101 101 104 102 97 100 102 101 100 99 96 88 80 80 81 81 77 71 76 81 84 95 94 70 55 60 64 56 53 58 61 59 52 48 52 50 45 47 50 49 52 56 52 43 38 38 40 40 42
102 94 98 101 100 101 100 100 102 101 102 101 99 100 100 101 104 102 100 101 99 99 99 97 97 93 88 84 81 78 73 75 84 87 90 94 82 63 55 60 64 55 49 55 59 58 54 52 56 55 47 47 51 50 50 50 44 39 39 41 42 41 41
102 99 100 99 101 102 100 101 101 101 102 100 100 100 99 101 104 102 101 102 100 98 97 98 100 100 98 93 86 81 78 84 91 95 100 97 81 66 58 62 63 51 46 52 54 54 56 56 63 65 54 51 55 50 45 44 42 42 46 47 45 42 37
101 103 95 92 98 100 100 101 100 101 102 101 101 100 99 101 101 101 103 102 100 98 99 100 100 101 102 99 93 87 88 95 100 103 104 95 83 73 66 65 61 49 45 48 50 52 55 59 68 72 64 59 59 50 45 47 46 46 50 49 44 40 36
100 102 94 92 97 98 100 101 100 102 102 100 100 99 99 99 99 101 102 101 98 97 101 102 98 99 99 95 89 88 92 101 105 106 99 85 79 75 68 62 57 49 44 46 51 52 55 60 70 78 76 70 64 53 50 53 48 44 44 42 39 38 37
102 101 95 97 100 98 100 101 100 102 100 99 100 99 99 100 98 99 101 102 98 95 99 98 92 93 93 88 84 87 96 106 108 100 85 73 72 71 65 59 54 48 45 48 53 54 57 62 68 81 85 78 70 60 55 53 46 44 44 41 42 43 41
101 101 96 98 100 99 101 100 100 101 100 100 102 100 100 100 98 98 101 102 100 99 100 94 87 89 92 92 92 94 101 105 99 85 71 65 66 66 64 59 53 50 50 52 55 57 59 62 66 77 84 81 75 68 62 54 47 50 54 52 52 55 54
101 102 98 97 100 100 101 100 100 101 99 101 102 100 100 100 99 101 100 100 101 102 103 100 95 95 99 103 102 96 91 88 80 71 65 63 62 63 65 59 52 54 56 55 58 60 60 62 64 70 76 78 75 71 67 59 51 52 58 57 55 56 56
101 102 99 98 100 100 100 100 101 100 99 101 100 97 99 100 100 100 99 99 100 100 103 106 104 102 105 107 99 84 73 69 67 64 61 61 62 65 65 57 52 58 61 59 59 63 63 62 62 64 69 72 73 71 67 61 54 50 52 54 52 51 51
102 102 101 100 100 100 100 101 101 100 99 101 97 95 98 101 101 102 101 100 100 100 101 103 108 110 108 103 90 74 63 61 63 60 58 61 67 68 60 51 53 60 63 61 61 64 66 64 62 61 64 67 71 71 67 62 58 53 50 49 48 49 48
104 103 101 100 101 102 101 101 101 99 100 101 97 96 97 93 93 96 95 96 100 101 100 103 109 108 100 91 80 69 61 61 62 58 59 67 69 62 50 43 47 55 60 62 63 65 68 68 64 60 60 64 70 71 68 62 60 58 54 48 46 47 47
104 102 100 100 102 102 100 102 101 98 101 100 96 99 94 78 74 76 79 87 94 96 101 105 100 88 79 76 73 68 64 64 63 59 64 72 63 49 42 37 39 47 55 60 64 68 71 72 68 61 58 61 66 71 71 67 64 62 56 47 44 45 46
103 102 99 100 100 100 100 101 100 98 101 98 92 98 95 73 63 69 80 90 91 85 83 83 73 63 63 67 69 68 66 65 64 63 70 71 55 40 36 35 37 43 49 54 61 67 72 73 70 63 58 58 62 67 72 73 72 66 55 45 41 40 42
102 100 99 99 100 100 100 100 101 100 101 95 89 93 91 72 62 73 90 102 98 76 55 47 46 47 52 58 62 63 61 62 63 67 77 72 50 38 38 37 38 40 43 49 54 59 63 63 63 61 57 57 59 62 66 69 69 61 51 44 40 38 41
99 99 100 100 100 100 100 101 100 99 97 90 82 82 80 69 66 79 95 105 96 66 39 34 36 39 44 46 48 49 49 56 63 73 85 75 51 42 43 41 39 39 41 46 47 47 48 46 46 48 50 52 55 57 57 60 60 56 50 47 44 43 43
95 98 101 102 100 100 101 100 99 100 96 81 69 69 70 65 70 84 96 99 85 52 35 41 40 36 41 40 37 41 46 54 67 79 88 79 58 48 48 46 42 40 42 45 45 44 41 36 32 30 32 38 44 49 49 49 52 52 50 48 46 44 42
89 95 101 103 100 100 102 98 96 102 97 76 61 59 63 65 69 81 92 97 88 56 36 47 51 41 41 39 35 40 46 54 66 76 82 79 65 54 54 54 51 47 46 47 46 46 42 35 27 21 20 22 27 32 35 37 40 43 44 44 43 41 41
79 89 100 104 100 99 101 97 93 99 100 89 72 55 55 63 62 70 84 91 90 71 44 46 62 58 50 47 41 42 49 55 63 72 79 83 78 67 60 61 60 56 55 53 50 49 47 39 30 25 22 19 18 20 22 24 27 31 34 37 40 43 47
71 82 96 103 100 98 101 97 90 92 97 99 92 67 52 57 55 61 80 86 85 83 65 52 63 70 66 62 51 45 52 56 60 70 80 91 98 86 67 64 68 67 64 61 56 53 51 45 39 36 33 28 25 25 26 27 28 31 36 41 46 51 56
64 76 90 101 101 99 102 97 85 87 93 96 100 87 63 55 51 53 75 89 83 88 91 77 70 78 84 82 67 51 50 54 58 66 74 87 103 100 79 67 70 73 73 70 63 56 53 51 48 46 45 45 45 46 48 49 46 44 45 48 50 52 54
58 71 85 99 101 98 102 98 82 83 95 95 97 100 87 72 59 49 69 94 88 84 96 92 84 90 97 100 93 74 61 62 65 65 64 70 86 97 94 81 72 75 80 79 71 62 56 55 53 53 54 56 62 68 72 75 70 60 53 50 48 47 48
54 68 80 94 102 98 99 101 85 75 92 100 96 102 103 91 70 52 65 92 87 70 73 81 88 96 97 102 103 88 72 67 66 65 68 72 76 83 93 93 85 83 87 86 81 72 64 60 56 55 55 56 64 75 82 87 86 74 61 55 52 54 58
50 65 77 90 102 103 99 103 94 76 83 99 101 102 103 97 83 64 67 87 84 58 48 61 79 83 78 84 85 73 64 65 68 80 91 95 93 88 91 97 99 98 96 93 90 84 76 68 60 55 52 51 58 69 74 80 86 82 73 68 66 68 73
41 58 73 84 97 104 101 103 98 79 74 88 101 107 105 98 86 66 62 80 86 65 45 51 67 64 56 68 75 63 56 57 67 89 102 101 101 100 99 105 108 106 104 101 99 97 90 82 72 62 53 48 53 63 68 72 82 89 88 85 84 83 83
28 49 67 78 90 100 101 100 91 74 67 75 84 94 101 100 89 71 63 73 84 78 61 57 66 62 59 75 84 70 57 54 62 85 101 101 101 100 101 105 104 100 104 106 104 104 102 96 87 76 63 52 50 57 64 71 78 85 86 87 87 87 85
24 47 62 72 88 99 101 100 91 74 65 68 72 81 94 104 101 91 84 86 89 89 87 84 80 72 69 75 76 65 57 56 65 89 106 105 101 100 99 96 90 88 98 106 105 105 107 103 97 89 76 61 50 50 56 63 69 72 75 78 81 82 83
28 46 56 66 85 99 100 101 99 84 67 64 68 76 90 103 107 102 100 104 102 99 104 105 93 81 77 70 61 57 55 56 74 101 110 101 101 105 98 86 82 85 93 103 104 103 105 105 102 98 89 72 58 52 50 55 61 65 69 72 74 78 82
27 38 49 63 79 95 101 104 105 96 79 70 68 70 81 92 97 98 103 108 104 98 102 102 90 83 79 66 57 57 58 68 92 108 104 97 101 106 97 86 86 87 89 99 106 102 101 103 102 101 97 84 68 59 58 61 65 70 75 77 74 74 79
20 29 45 60 72 90 103 107 107 101 92 87 82 78 78 76 76 88 103 108 103 98 100 101 94 87 77 64 61 66 71 88 104 105 100 99 102 106 102 93 91 89 90 102 109 102 99 103 101 101 102 93 76 67 68 73 77 82 85 83 78 75 76
16 21 37 53 66 85 98 101 104 100 90 88 92 93 89 80 78 89 100 107 108 103 101 103 97 82 68 60 68 80 90 101 105 100 100 101 103 108 105 93 88 90 94 105 108 101 100 102 99 101 103 97 84 73 70 76 87 95 94 87 84 81 77
13 17 31 47 62 79 91 97 104 101 86 75 76 82 88 90 94 98 100 105 109 104 102 104 92 72 60 64 81 96 101 102 101 99 99 99 104 108 98 87 89 89 93 106 109 101 99 100 98 100 102 99 92 80 70 74 89 101 104 98 90 81 75
12 17 29 42 55 72 86 94 102 103 95 81 67 66 80 94 101 103 104 105 105 102 102 100 87 69 56 62 86 102 101 97 96 97 98 100 106 108 95 86 88 86 90 108 112 102 99 100 99 101 101 101 99 85 69 69 83 99 106 99 85 73 70
14 16 26 37 51 67 76 84 97 104 102 93 73 61 76 97 103 103 107 108 103 101 102 100 94 80 61 61 84 99 99 100 98 96 98 99 103 110 101 86 82 81 86 102 109 104 102 101 100 101 99 101 106 94 72 65 74 87 92 87 79 73 70
Wind_Speed
67 62 57 55 54 55 54 51 50 51 51 49 45 43 41 38 38 38 37 37 38 38 38 38 39 38 36 36 35 33 30 26 24 23 24 26 29 29 28 24 22 22 20 16 14 14 14 15 17 16 14 13 12 11 12 13 14 16 16 16 17 16 16
65 61 57 54 53 55 57 54 50 50 51 51 48 45 43 40 39 39 37 38 39 39 39 40 39 38 37 36 35 31 28 25 23 23 25 27 29 30 27 22 21 20 19 17 15 14 13 14 17 17 14 13 12 13 15 15 14 14 14 15 14 14 15
66 62 59 55 53 55 58 56 52 49 49 51 50 48 46 43 41 39 37 38 40 40 41 40 38 38 37 36 34 30 28 26 24 24 26 27 28 30 26 20 18 18 16 16 16 15 14 13 15 17 15 13 13 14 14 15 15 13 12 11 11 12 14
69 64 60 57 54 54 56 56 54 51 49 49 50 50 48 44 42 40 38 39 40 41 42 40 38 37 36 34 32 30 28 26 25 25 26 27 28 29 25 19 18 17 14 15 16 16 15 13 13 16 16 14 14 13 13 15 16 14 12 10 10 11 13
73 65 60 57 57 56 56 57 56 54 52 49 47 50 50 46 44 42 41 41 41 42 43 41 40 38 34 33 32 30 28 27 26 26 27 27 29 29 25 20 19 17 14 13 15 16 16 14 14 15 16 15 13 12 13 15 16 15 12 11 12 12 14
77 68 59 57 59 59 58 58 57 57 56 50 45 46 48 48 47 45 43 42 41 43 44 43 41 38 35 33 31 30 28 27 27 28 28 28 29 28 24 20 19 17 14 13 14 15 16 15 15 16 16 15 13 11 12 13 15 16 13 12 13 13 13
79 70 58 55 58 60 59 59 58 59 58 53 46 43 44 47 50 48 45 45 45 45 44 42 41 39 36 34 32 31 29 28 28 28 29 29 29 28 26 22 19 17 14 12 13 14 15 15 15 17 18 17 12 9 10 11 13 14 14 13 12 11 10
82 75 66 61 60 59 60 60 59 60 60 55 49 45 43 45 49 50 48 48 49 48 45 44 43 40 38 37 35 33 31 29 29 29 30 31 30 29 28 23 20 18 15 13 13 13 14 14 15 16 17 18 14 9 8 10 11 12 12 11 9 8 8
85 79 72 69 64 60 62 62 60 61 61 58 52 47 44 42 43 47 51 53 53 50 48 48 46 43 41 40 37 34 32 31 30 32 33 33 30 29 29 25 20 18 15 13 13 13 13 13 14 15 17 17 15 10 8 8 9 10 10 8 6 7 7
87 82 75 73 69 64 64 64 63 62 61 60 55 48 45 41 39 42 50 55 57 54 51 51 50 46 43 41 37 35 33 33 33 35 35 32 29 29 29 26 20 18 16 14 14 13 13 13 13 14 15 15 15 12 9 9 9 9 8 7 7 8 9
88 84 80 77 73 68 65 65 64 62 60 61 58 51 45 42 40 42 47 52 55 56 54 53 51 47 43 40 38 37 36 36 36 36 34 30 29 28 29 26 20 18 17 16 15 14 13 13 13 13 13 14 15 14 12 11 10 10 9 10 10 11 12
90 88 84 80 76 71 67 67 65 62 60 61 60 54 46 42 41 43 44 46 51 54 54 52 50 47 44 41 40 40 38 37 36 34 31 29 28 28 28 25 19 18 17 16 15 15 14 13 13 13 13 14 15 16 15 14 14 13 13 12 13 14 15
92 90 87 82 76 73 70 68 66 62 60 61 61 57 49 45 44 42 42 44 47 51 51 50 49 46 44 43 42 41 38 35 34 31 29 28 27 27 27 23 19 17 17 17 16 16 15 14 14 14 14 15 17 18 18 17 17 17 16 16 17 18 19
93 91 89 84 78 74 72 69 66 63 60 60 61 59 52 49 47 44 42 43 44 47 49 48 47 46 45 44 43 40 37 34 31 28 27 27 27 26 24 19 17 17 17 17 17 17 16 16 15 15 15 16 19 20 21 20 20 20 20 20 20 21 22
94 92 91 86 80 76 73 71 68 64 61 60 61 59 55 52 50 46 44 42 42 45 47 46 45 45 45 44 42 39 36 32 30 27 26 26 25 23 20 17 16 17 17 17 17 17 18 17 17 16 16 17 20 22 23 23 23 22 22 22 23 23 24
96 94 91 87 82 78 74 72 70 66 63 61 61 60 56 53 51 48 44 40 38 40 42 43 43 43 43 42 40 38 35 31 28 27 25 24 22 20 17 15 15 16 16 17 17 17 18 19 18 18 18 18 20 23 25 26 26 25 25 24 24 25 25
98 96 91 86 82 78 76 75 73 69 65 63 63 61 58 55 53 49 43 38 36 36 37 38 40 40 40 39 38 37 34 31 29 28 25 22 20 17 15 14 14 14 15 16 17 17 18 19 19 19 19 20 21 23 26 28 28 27 27 26 26 26 27
100 97 91 86 83 80 78 77 75 71 68 66 65 64 61 58 56 51 44 38 36 34 34 36 36 37 37 36 36 35 33 30 29 28 25 22 19 15 13 12 12 12 14 16 16 17 17 18 19 19 20 21 22 24 27 29 29 29 29 28 28 28 29
102 99 92 88 85 82 79 78 76 73 70 67 66 66 64 61 58 53 47 40 37 36 35 35 35 35 35 34 33 32 31 29 28 27 25 22 19 16 13 12 12 12 13 15 16 16 16 17 17 18 19 21 22 24 27 30 31 31 31 31 31 32 32
103 100 94 91 88 84 81 79 74 70 68 66 65 66 66 63 59 55 50 42 37 36 35 34 34 34 33 32 31 29 28 27 26 25 24 22 20 19 16 14 14 14 14 14 15 15 15 16 16 16 16 18 21 23 26 29 31 33 33 34 34 35 35
105 101 95 93 90 86 83 80 74 68 67 66 64 65 67 64 60 57 51 43 38 36 36 34 33 33 33 32 30 28 26 25 24 23 22 21 20 20 19 16 15 16 15 15 16 16 16 16 16 15 15 16 18 21 24 28 30 32 34 35 35 36 37
105 101 97 94 91 87 84 82 77 70 68 67 64 65 67 63 59 58 52 44 40 39 39 37 35 33 33 32 31 29 27 26 25 23 21 20 19 21 21 19 18 19 18 18 18 18 17 17 16 15 14 15 17 19 21 24 26 28 31 33 34 36 37
105 102 98 95 92 88 84 83 79 72 67 64 60 61 65 63 59 58 55 48 42 41 40 40 37 34 33 33 32 30 28 27 26 24 22 20 20 21 23 21 21 21 22 21 20 18 18 18 17 16 15 14 15 17 19 21 23 25 27 30 32 35 37
105 102 99 96 92 89 84 83 81 72 65 63 60 60 65 65 62 61 59 52 47 43 42 41 40 37 34 33 31 30 28 26 25 24 22 21 20 21 23 24 24 24 25 24 23 20 19 19 19 19 18 16 15 16 18 20 22 24 26 29 31 34 36
106 103 100 96 93 91 85 83 83 75 67 66 68 69 69 69 67 65 62 56 50 47 45 44 42 38 35 33 30 29 28 27 26 25 24 22 20 20 22 25 26 27 28 27 26 23 21 20 21 22 22 21 19 18 19 21 23 25 27 28 30 32 34
106 103 100 97 95 92 87 84 84 80 72 68 70 74 74 72 70 68 65 60 55 51 49 46 42 39 36 35 32 31 30 29 27 26 24 22 21 20 22 25 27 29 29 29 28 26 24 22 22 23 25 26 24 22 22 24 26 28 29 29 30 32 33
107 104 102 99 97 94 89 85 84 84 79 71 70 73 75 74 71 69 67 64 59 54 50 46 42 39 36 34 33 32 32 31 31 29 27 25 24 23 24 25 27 29 30 29 29 28 26 25 24 24 26 28 28 26 25 25 27 30 31 32 33 34 35
107 104 103 101 98 94 90 87 85 85 83 76 72 73 74 74 72 70 69 67 62 57 52 47 43 40 38 36 36 35 34 36 37 34 31 31 31 30 28 28 29 29 30 30 30 29 28 27 27 27 27 29 31 31 29 28 28 30 32 34 35 36 37
106 104 103 100 97 93 90 88 86 86 84 79 74 73 72 71 70 70 70 67 63 59 56 52 48 45 43 41 38 36 37 39 39 36 34 36 36 34 31 31 31 30 30 32 31 30 31 31 31 31 31 31 32 33 32 31 30 31 33 35 37 38 39
105 104 102 99 96 94 91 88 86 86 83 80 76 75 72 70 70 70 68 63 60 60 58 56 54 51 49 44 39 38 39 41 42 41 39 40 40 38 39 41 38 34 34 36 34 33 34 35 37 38 36 35 35 35 35 34 32 33 34 36 38 39 40
105 105 104 101 98 96 92 88 86 85 83 80 79 79 79 75 72 70 67 63 61 61 61 60 58 56 51 45 40 40 41 43 44 42 40 40 39 39 45 47 42 35 36 41 40 37 37 39 42 45 45 41 38 37 37 36 35 34 35 37 38 40 41
106 105 104 102 99 97 94 91 90 88 85 81 80 81 82 80 75 71 70 68 65 63 62 61 59 57 52 46 44 44 44 44 44 40 38 39 37 36 38 39 39 35 35 42 45 43 42 45 49 52 51 47 42 39 39 38 37 36 36 37 38 40 41
106 106 104 102 100 98 97 96 94 91 87 84 81 79 79 79 75 72 72 71 67 64 63 62 60 57 52 48 48 48 45 45 44 40 37 36 35 35 35 36 39 37 35 42 48 48 49 53 57 59 58 52 45 42 40 39 38 36 36 37 38 40 40
106 106 104 103 102 101 99 97 94 91 89 87 82 78 77 77 74 72 71 70 67 64 63 61 59 55 51 50 50 49 46 45 42 38 36 34 32 34 36 37 40 39 36 43 52 54 57 63 67 67 65 57 48 44 43 40 38 36 35 36 38 39 40
105 104 104 103 102 101 100 96 93 90 89 88 84 79 77 75 72 69 69 67 65 62 61 59 57 54 52 51 51 49 46 42 38 35 34 34 34 35 38 40 41 39 37 45 55 58 62 67 69 68 65 57 49 46 45 42 39 37 36 36 37 39 41
105 103 102 103 101 100 98 96 92 89 88 87 84 79 74 72 70 67 66 65 62 60 60 59 57 55 54 54 53 51 49 46 45 43 39 38 38 40 41 43 45 42 40 47 57 61 65 69 68 65 62 56 50 48 46 43 40 38 38 38 39 40 43
104 101 97 99 100 98 96 94 91 89 87 87 85 81 75 72 70 68 66 66 64 61 60 59 59 58 57 56 55 53 50 50 51 50 45 42 42 43 44 45 47 45 43 49 58 62 65 67 65 62 60 56 51 49 47 44 41 41 42 42 41 41 43
Wind_Direction
203 206 205 206 211 214 212 214 219 221 223 223 222 222 223 221 221 222 221 222 227 231 233 235 236 237 240 245 248 251 257 263 270 278 284 287 294 302 309 312 308 298 289 288 295 295 294 301 304 303 305 308 303 298 300 300 296 293 293 293 298 306 311
202 204 203 203 207 211 211 211 214 218 222 225 224 223 223 222 223 225 225 226 229 232 235 237 238 239 241 245 248 252 257 261 268 276 280 284 294 302 305 307 304 295 286 285 293 296 292 296 302 303 304 302 296 296 300 302 302 297 292 293 299 304 309
200 201 202 203 205 208 209 209 212 214 219 224 225 225 224 222 224 226 227 229 231 234 237 238 239 240 242 245 248 251 255 260 267 273 277 285 294 297 298 302 300 291 283 283 289 294 291 290 297 300 300 297 295 296 297 299 303 300 296 297 302 306 313
199 200 201 204 206 207 207 208 212 214 217 222 223 225 225 223 224 226 227 231 234 236 238 239 239 241 243 244 246 249 254 260 266 271 277 285 291 293 294 300 298 289 279 279 285 290 290 287 291 295 295 294 294 293 291 294 297 298 298 301 304 308 316
198 198 201 204 204 205 206 207 210 212 214 218 220 223 225 223 224 225 226 230 234 236 239 239 240 241 242 243 245 248 254 259 265 270 277 283 288 290 292 296 295 285 274 273 280 286 288 288 290 292 290 288 289 287 287 291 295 298 300 302 305 311 317
198 198 201 203 203 204 206 206 208 210 211 213 216 220 224 223 223 224 225 227 232 235 238 240 242 242 242 243 246 250 255 260 264 270 276 282 287 288 289 293 289 278 267 267 274 280 285 288 292 295 291 285 282 281 283 288 292 296 300 304 310 315 319
198 199 202 204 204 205 206 206 207 209 209 210 211 215 220 223 224 223 224 227 232 235 238 241 243 244 244 246 249 253 256 259 263 269 275 280 284 285 286 290 282 270 261 261 267 274 281 286 291 296 294 287 280 271 271 276 282 292 298 305 313 319 322
198 198 198 200 203 205 207 206 207 208 207 207 209 211 215 222 225 225 225 229 234 236 239 242 243 243 246 248 251 254 255 258 262 267 272 276 280 281 283 285 277 264 257 256 262 267 274 281 288 295 295 289 281 262 251 262 272 282 288 299 314 321 324
198 197 196 197 199 203 206 206 207 208 207 207 209 210 212 218 224 226 227 230 234 237 239 242 244 245 247 250 253 254 255 258 261 266 270 273 276 276 278 281 271 258 254 253 257 262 269 276 283 291 295 291 284 265 241 248 259 266 274 288 310 322 326
197 196 196 197 197 200 204 205 206 208 207 208 210 211 211 214 219 224 228 231 234 237 239 243 247 248 250 253 255 255 257 260 263 266 268 271 273 272 275 280 267 251 252 252 253 260 265 271 276 284 290 288 283 272 252 241 241 249 265 282 299 311 318
195 195 197 198 196 197 202 205 206 207 207 208 210 210 211 212 216 223 229 233 235 237 239 244 248 250 252 254 255 256 258 262 264 265 266 269 271 270 276 278 262 247 250 251 252 257 262 267 269 272 278 277 273 267 259 247 241 246 264 282 294 302 306
194 196 198 199 197 197 200 204 207 207 208 209 209 209 211 213 217 223 230 234 236 237 239 243 247 250 251 252 254 256 259 261 262 262 264 267 269 271 276 273 254 243 249 249 252 256 260 266 266 264 264 261 259 257 254 252 249 252 263 277 288 295 300
194 196 198 199 198 197 199 202 205 207 209 211 210 209 211 215 219 224 230 235 236 237 237 240 244 247 248 249 252 256 258 258 257 258 261 265 268 271 272 263 246 243 248 249 252 255 259 265 266 263 257 250 248 247 247 250 252 255 262 272 281 288 293
195 197 198 198 198 198 200 202 204 206 208 211 211 209 210 214 217 221 228 233 235 235 236 238 241 243 245 246 250 254 255 253 253 254 258 263 266 268 264 252 242 244 247 250 253 256 259 264 266 263 256 248 244 242 243 246 250 256 263 271 278 284 290
195 197 197 197 197 198 200 203 205 206 206 209 210 208 208 212 214 218 224 230 232 232 232 235 237 239 241 244 247 250 250 248 248 251 257 261 262 260 255 247 243 245 247 251 255 256 259 263 265 264 257 249 244 242 242 244 248 254 261 268 275 281 287
196 197 197 196 197 199 202 204 206 206 206 208 208 205 206 211 213 216 222 228 230 230 230 232 234 236 238 241 243 245 244 243 245 251 257 258 256 253 249 244 243 244 248 253 255 256 258 261 264 263 258 251 246 244 244 245 249 254 259 265 271 277 282
196 196 196 196 197 199 202 205 206 207 207 208 207 204 205 210 213 215 220 226 230 230 230 230 231 233 235 237 238 238 237 238 242 250 254 255 252 248 243 240 241 244 248 252 255 256 257 260 262 262 258 253 249 247 247 247 249 253 258 264 270 276 281
197 196 195 196 197 199 202 204 206 207 207 208 207 204 205 210 212 214 218 224 229 229 228 227 227 229 230 231 232 231 232 234 239 246 252 252 247 240 235 235 239 245 248 251 254 257 258 260 261 261 259 256 253 251 250 249 251 254 259 265 271 277 282
197 196 195 196 197 199 201 204 206 207 208 209 208 205 206 210 212 213 216 222 226 226 224 223 222 223 224 224 225 225 227 231 235 241 247 246 241 234 231 237 244 249 250 251 255 260 265 268 269 266 263 260 258 257 255 254 255 257 262 267 272 277 281
197 197 195 195 197 199 201 203 205 207 210 212 210 207 207 210 211 212 215 219 223 223 221 219 218 218 220 221 221 221 224 228 232 236 240 240 238 236 236 243 253 258 259 261 264 269 273 279 282 280 275 270 265 263 261 259 258 260 263 267 272 276 280
198 198 196 195 197 198 200 202 202 204 210 216 214 209 208 210 211 212 215 219 221 220 219 218 217 217 219 221 221 220 222 226 230 232 235 238 241 244 247 254 268 274 277 279 281 280 281 284 288 290 288 282 275 271 268 265 263 263 265 268 271 275 278
199 198 196 196 197 197 199 202 201 200 205 213 217 213 210 211 213 213 214 217 220 220 218 219 218 218 221 224 224 222 223 227 230 233 236 240 246 250 253 261 274 281 284 286 287 286 284 285 289 292 292 291 288 283 280 277 273 269 269 270 273 276 279
200 199 197 196 197 197 198 201 201 199 202 209 216 218 216 215 215 215 215 217 219 221 221 220 219 218 221 226 225 223 224 227 231 236 238 241 247 251 253 260 272 280 285 287 286 285 283 285 289 292 294 296 296 295 292 289 285 281 278 278 279 280 282
200 199 197 197 197 196 197 200 200 198 200 206 211 216 219 220 219 217 216 217 219 221 222 222 221 220 221 226 228 227 227 229 234 238 241 243 247 251 253 259 268 276 283 286 285 283 283 286 291 293 296 298 300 300 299 296 293 290 288 287 286 287 287
201 199 198 197 197 196 196 200 199 196 198 204 208 209 213 218 221 220 218 217 218 221 222 223 222 221 223 227 231 232 234 236 238 241 244 246 248 251 253 257 264 272 279 284 286 285 284 287 292 294 296 297 299 300 299 298 297 296 295 296 296 297 298
200 199 199 198 197 196 196 199 200 198 198 204 209 209 208 211 217 220 220 219 219 221 223 224 224 224 227 228 229 232 236 241 243 242 244 249 252 252 252 254 259 266 272 279 284 286 287 289 294 296 295 294 295 297 297 296 296 296 298 300 303 306 307
201 200 199 198 197 197 196 198 201 200 200 204 209 211 209 209 212 217 219 220 220 222 225 226 225 227 229 229 229 234 239 245 247 245 247 253 257 254 250 251 256 261 267 273 279 284 288 291 295 298 297 293 291 293 294 294 293 295 298 301 304 306 309
201 200 200 199 198 198 197 198 201 203 202 204 208 211 211 210 211 215 218 220 221 224 227 228 227 227 228 228 231 237 244 248 249 249 248 251 255 256 253 251 253 257 262 267 273 280 287 291 295 298 300 296 291 289 291 293 294 295 298 301 303 305 307
201 201 200 199 199 199 198 199 202 204 204 205 208 210 211 211 213 216 218 220 222 224 227 229 230 229 228 229 231 237 244 248 250 250 248 249 255 258 256 255 258 260 264 268 272 279 286 291 295 297 299 297 292 289 288 290 293 296 298 301 303 304 306
201 200 200 200 199 199 198 199 203 205 206 206 208 210 211 211 214 216 217 219 223 225 227 230 232 232 232 232 233 238 243 246 248 251 252 254 258 261 260 260 259 259 262 268 274 280 284 291 296 297 296 296 293 290 288 287 290 294 296 300 302 303 305
201 200 200 199 199 199 198 199 202 205 207 207 208 210 211 211 213 214 214 216 221 225 228 230 231 233 233 233 234 237 240 242 246 250 252 254 258 263 263 257 247 242 249 261 272 282 285 289 294 296 296 294 291 290 289 286 287 291 293 297 300 301 303
201 200 200 200 199 198 198 199 200 203 205 207 209 211 212 212 212 212 212 214 217 222 227 229 230 232 232 231 233 235 236 240 246 248 247 250 258 265 262 248 233 230 239 253 267 281 288 289 292 294 294 293 289 289 289 286 285 288 290 293 297 299 301
202 201 201 201 200 199 199 200 201 201 203 205 208 211 213 214 214 212 213 215 217 219 224 227 229 231 230 230 233 235 235 240 245 244 245 253 262 262 255 241 230 230 238 249 261 276 287 290 291 291 291 290 288 287 288 286 283 285 288 291 293 295 298
202 203 202 202 201 200 200 202 202 202 203 205 207 209 212 214 215 215 216 218 219 220 222 226 228 229 228 229 232 234 235 237 241 243 248 256 259 254 247 238 230 230 237 248 258 270 282 287 287 287 287 287 285 284 286 285 283 282 285 289 291 293 297
203 203 203 203 203 202 202 202 203 203 204 207 209 210 211 212 213 215 217 218 220 222 224 226 226 226 227 228 229 231 233 236 240 243 244 247 248 245 240 235 232 231 237 247 256 266 276 281 282 282 282 283 282 282 284 284 282 280 281 285 288 292 296
203 203 203 204 203 203 203 204 204 204 204 207 210 212 212 211 211 212 214 215 217 221 223 224 223 223 224 226 226 229 233 237 239 239 237 238 242 241 237 235 235 234 236 244 253 262 269 274 277 278 279 280 279 279 282 283 281 278 278 282 286 290 293
200 201 203 205 205 204 205 205 206 205 205 207 210 211 211 210 209 210 211 212 215 219 220 220 221 221 221 223 225 229 235 237 237 237 234 232 234 235 234 236 237 237 240 248 255 262 268 271 273 275 277 278 277 277 280 282 281 280 281 284 286 288 291